Year,Month,Day,Hour,Minute,Value (Times are PST for windspeed in km/hr)
2018,06,15,00,00,0.00
2018,06,15,00,01,0.00
2018,06,15,00,02,0.00
2018,06,15,00,03,0.00
2018,06,15,00,04,0.00
2018,06,15,00,05,0.00
2018,06,15,00,06,0.00
2018,06,15,00,07,0.00
2018,06,15,00,08,0.00
2018,06,15,00,09,0.00
2018,06,15,00,10,0.00
2018,06,15,00,11,0.00
2018,06,15,00,12,0.00
2018,06,15,00,13,0.00
2018,06,15,00,14,0.00
2018,06,15,00,15,0.00
2018,06,15,00,16,0.00
2018,06,15,00,17,0.00
2018,06,15,00,18,0.00
2018,06,15,00,19,0.00
2018,06,15,00,20,0.00
2018,06,15,00,21,0.00
2018,06,15,00,22,0.00
2018,06,15,00,23,0.00
2018,06,15,00,24,0.00
2018,06,15,00,25,0.00
2018,06,15,00,26,0.00
2018,06,15,00,27,0.00
2018,06,15,00,28,0.00
2018,06,15,00,29,0.00
2018,06,15,00,30,0.00
2018,06,15,00,31,0.00
2018,06,15,00,32,0.00
2018,06,15,00,33,0.00
2018,06,15,00,34,0.00
2018,06,15,00,35,0.00
2018,06,15,00,36,0.00
2018,06,15,00,37,0.00
2018,06,15,00,38,0.00
2018,06,15,00,39,0.00
2018,06,15,00,40,0.00
2018,06,15,00,41,0.00
2018,06,15,00,42,0.00
2018,06,15,00,43,0.00
2018,06,15,00,44,0.00
2018,06,15,00,45,0.00
2018,06,15,00,46,0.00
2018,06,15,00,47,0.00
2018,06,15,00,48,0.00
2018,06,15,00,49,0.00
2018,06,15,00,50,0.00
2018,06,15,00,51,0.00
2018,06,15,00,52,0.00
2018,06,15,00,53,0.00
2018,06,15,00,54,0.00
2018,06,15,00,55,0.00
2018,06,15,00,56,0.00
2018,06,15,00,57,0.00
2018,06,15,00,58,0.00
2018,06,15,00,59,0.00
2018,06,15,01,00,0.00
2018,06,15,01,01,0.00
2018,06,15,01,02,0.00
2018,06,15,01,03,0.00
2018,06,15,01,04,0.00
2018,06,15,01,05,0.00
2018,06,15,01,06,0.00
2018,06,15,01,07,0.00
2018,06,15,01,08,0.00
2018,06,15,01,09,0.00
2018,06,15,01,10,0.00
2018,06,15,01,11,0.00
2018,06,15,01,12,0.00
2018,06,15,01,13,0.00
2018,06,15,01,14,0.00
2018,06,15,01,15,0.00
2018,06,15,01,16,0.00
2018,06,15,01,17,0.00
2018,06,15,01,18,0.00
2018,06,15,01,19,0.00
2018,06,15,01,20,0.00
2018,06,15,01,21,0.00
2018,06,15,01,22,0.00
2018,06,15,01,23,0.00
2018,06,15,01,24,0.00
2018,06,15,01,25,0.10
2018,06,15,01,26,0.70
2018,06,15,01,27,0.00
2018,06,15,01,28,0.00
2018,06,15,01,29,0.00
2018,06,15,01,30,0.00
2018,06,15,01,31,0.00
2018,06,15,01,32,0.00
2018,06,15,01,33,0.00
2018,06,15,01,34,0.00
2018,06,15,01,35,0.00
2018,06,15,01,36,0.00
2018,06,15,01,37,0.00
2018,06,15,01,38,0.00
2018,06,15,01,39,0.00
2018,06,15,01,40,0.00
2018,06,15,01,41,0.00
2018,06,15,01,42,0.00
2018,06,15,01,43,0.00
2018,06,15,01,44,0.00
2018,06,15,01,45,0.00
2018,06,15,01,46,0.00
2018,06,15,01,47,0.00
2018,06,15,01,48,0.00
2018,06,15,01,49,0.00
2018,06,15,01,50,0.00
2018,06,15,01,51,0.00
2018,06,15,01,52,0.00
2018,06,15,01,53,0.00
2018,06,15,01,54,0.00
2018,06,15,01,55,0.00
2018,06,15,01,56,0.00
2018,06,15,01,57,0.00
2018,06,15,01,58,0.00
2018,06,15,01,59,0.00
2018,06,15,02,00,0.00
2018,06,15,02,01,0.00
2018,06,15,02,02,0.00
2018,06,15,02,03,0.00
2018,06,15,02,04,0.00
2018,06,15,02,05,0.00
2018,06,15,02,06,0.00
2018,06,15,02,07,0.00
2018,06,15,02,08,0.00
2018,06,15,02,09,0.00
2018,06,15,02,10,0.00
2018,06,15,02,11,0.00
2018,06,15,02,12,0.00
2018,06,15,02,13,0.00
2018,06,15,02,14,0.00
2018,06,15,02,15,0.00
2018,06,15,02,16,0.00
2018,06,15,02,17,0.00
2018,06,15,02,18,0.00
2018,06,15,02,19,0.00
2018,06,15,02,20,0.00
2018,06,15,02,21,0.00
2018,06,15,02,22,0.00
2018,06,15,02,23,0.00
2018,06,15,02,24,0.00
2018,06,15,02,25,0.00
2018,06,15,02,26,0.00
2018,06,15,02,27,0.00
2018,06,15,02,28,0.20
2018,06,15,02,29,0.20
2018,06,15,02,30,0.00
2018,06,15,02,31,0.00
2018,06,15,02,32,0.00
2018,06,15,02,33,0.20
2018,06,15,02,34,0.30
2018,06,15,02,35,0.20
2018,06,15,02,36,0.00
2018,06,15,02,37,0.00
2018,06,15,02,38,0.00
2018,06,15,02,39,0.00
2018,06,15,02,40,0.00
2018,06,15,02,41,0.00
2018,06,15,02,42,0.00
2018,06,15,02,43,0.00
2018,06,15,02,44,0.00
2018,06,15,02,45,1.40
2018,06,15,02,46,0.20
2018,06,15,02,47,0.00
2018,06,15,02,48,0.00
2018,06,15,02,49,0.00
2018,06,15,02,50,0.00
2018,06,15,02,51,0.10
2018,06,15,02,52,0.00
2018,06,15,02,53,0.20
2018,06,15,02,54,0.00
2018,06,15,02,55,0.00
2018,06,15,02,56,0.00
2018,06,15,02,57,0.00
2018,06,15,02,58,0.10
2018,06,15,02,59,0.50
2018,06,15,03,00,1.50
2018,06,15,03,01,1.80
2018,06,15,03,02,0.50
2018,06,15,03,03,1.40
2018,06,15,03,04,0.60
2018,06,15,03,05,0.00
2018,06,15,03,06,0.00
2018,06,15,03,07,0.00
2018,06,15,03,08,0.40
2018,06,15,03,09,0.10
2018,06,15,03,10,0.30
2018,06,15,03,11,0.60
2018,06,15,03,12,0.30
2018,06,15,03,13,0.00
2018,06,15,03,14,0.00
2018,06,15,03,15,0.00
2018,06,15,03,16,0.10
2018,06,15,03,17,0.00
2018,06,15,03,18,0.10
2018,06,15,03,19,0.00
2018,06,15,03,20,0.00
2018,06,15,03,21,0.10
2018,06,15,03,22,1.10
2018,06,15,03,23,1.20
2018,06,15,03,24,1.00
2018,06,15,03,25,0.90
2018,06,15,03,26,0.90
2018,06,15,03,27,1.80
2018,06,15,03,28,0.30
2018,06,15,03,29,0.00
2018,06,15,03,30,0.00
2018,06,15,03,31,0.00
2018,06,15,03,32,0.00
2018,06,15,03,33,0.00
2018,06,15,03,34,0.00
2018,06,15,03,35,0.50
2018,06,15,03,36,0.90
2018,06,15,03,37,0.00
2018,06,15,03,38,0.00
2018,06,15,03,39,1.10
2018,06,15,03,40,1.10
2018,06,15,03,41,1.30
2018,06,15,03,42,1.30
2018,06,15,03,43,1.70
2018,06,15,03,44,1.80
2018,06,15,03,45,0.30
2018,06,15,03,46,0.00
2018,06,15,03,47,0.00
2018,06,15,03,48,0.00
2018,06,15,03,49,0.00
2018,06,15,03,50,0.00
2018,06,15,03,51,0.20
2018,06,15,03,52,0.40
2018,06,15,03,53,0.30
2018,06,15,03,54,3.30
2018,06,15,03,55,1.10
2018,06,15,03,56,2.80
2018,06,15,03,57,2.50
2018,06,15,03,58,3.00
2018,06,15,03,59,1.30
2018,06,15,04,00,2.00
2018,06,15,04,01,3.40
2018,06,15,04,02,3.20
2018,06,15,04,03,4.60
2018,06,15,04,04,2.40
2018,06,15,04,05,2.40
2018,06,15,04,06,0.70
2018,06,15,04,07,0.00
2018,06,15,04,08,0.00
2018,06,15,04,09,0.50
2018,06,15,04,10,0.90
2018,06,15,04,11,0.00
2018,06,15,04,12,0.00
2018,06,15,04,13,0.00
2018,06,15,04,14,0.00
2018,06,15,04,15,0.00
2018,06,15,04,16,1.00
2018,06,15,04,17,0.50
2018,06,15,04,18,0.00
2018,06,15,04,19,0.00
2018,06,15,04,20,0.00
2018,06,15,04,21,0.00
2018,06,15,04,22,0.00
2018,06,15,04,23,0.00
2018,06,15,04,24,0.00
2018,06,15,04,25,0.00
2018,06,15,04,26,0.00
2018,06,15,04,27,0.00
2018,06,15,04,28,0.00
2018,06,15,04,29,0.00
2018,06,15,04,30,0.00
2018,06,15,04,31,0.00
2018,06,15,04,32,0.00
2018,06,15,04,33,0.00
2018,06,15,04,34,0.00
2018,06,15,04,35,0.00
2018,06,15,04,36,0.00
2018,06,15,04,37,0.00
2018,06,15,04,38,0.00
2018,06,15,04,39,0.00
2018,06,15,04,40,0.00
2018,06,15,04,41,0.00
2018,06,15,04,42,0.00
2018,06,15,04,43,0.00
2018,06,15,04,44,0.00
2018,06,15,04,45,0.00
2018,06,15,04,46,0.00
2018,06,15,04,47,0.00
2018,06,15,04,48,0.00
2018,06,15,04,49,0.00
2018,06,15,04,50,0.00
2018,06,15,04,51,0.00
2018,06,15,04,52,0.00
2018,06,15,04,53,0.00
2018,06,15,04,54,0.00
2018,06,15,04,55,0.00
2018,06,15,04,56,0.00
2018,06,15,04,57,0.00
2018,06,15,04,58,0.00
2018,06,15,04,59,0.00
2018,06,15,05,00,0.00
2018,06,15,05,01,0.00
2018,06,15,05,02,0.00
2018,06,15,05,03,0.00
2018,06,15,05,04,0.00
2018,06,15,05,05,0.00
2018,06,15,05,06,0.00
2018,06,15,05,07,0.00
2018,06,15,05,08,0.00
2018,06,15,05,09,0.00
2018,06,15,05,10,0.00
2018,06,15,05,11,0.00
2018,06,15,05,12,0.00
2018,06,15,05,13,0.00
2018,06,15,05,14,0.30
2018,06,15,05,15,0.80
2018,06,15,05,16,0.00
2018,06,15,05,17,0.00
2018,06,15,05,18,0.30
2018,06,15,05,19,0.10
2018,06,15,05,20,0.00
2018,06,15,05,21,0.00
2018,06,15,05,22,0.00
2018,06,15,05,23,0.10
2018,06,15,05,24,0.00
2018,06,15,05,25,0.00
2018,06,15,05,26,0.00
2018,06,15,05,27,0.00
2018,06,15,05,28,0.00
2018,06,15,05,29,0.20
2018,06,15,05,30,0.60
2018,06,15,05,31,0.80
2018,06,15,05,32,1.60
2018,06,15,05,33,1.50
2018,06,15,05,34,2.00
2018,06,15,05,35,2.50
2018,06,15,05,36,2.10
2018,06,15,05,37,1.70
2018,06,15,05,38,2.10
2018,06,15,05,39,1.10
2018,06,15,05,40,1.00
2018,06,15,05,41,2.40
2018,06,15,05,42,1.70
2018,06,15,05,43,0.10
2018,06,15,05,44,0.00
2018,06,15,05,45,0.00
2018,06,15,05,46,0.00
2018,06,15,05,47,0.00
2018,06,15,05,48,0.00
2018,06,15,05,49,0.90
2018,06,15,05,50,0.30
2018,06,15,05,51,2.00
2018,06,15,05,52,1.60
2018,06,15,05,53,1.70
2018,06,15,05,54,0.60
2018,06,15,05,55,0.40
2018,06,15,05,56,0.00
2018,06,15,05,57,0.00
2018,06,15,05,58,0.20
2018,06,15,05,59,1.30
2018,06,15,06,00,1.00
2018,06,15,06,01,1.20
2018,06,15,06,02,2.10
2018,06,15,06,03,1.60
2018,06,15,06,04,1.40
2018,06,15,06,05,1.40
2018,06,15,06,06,1.30
2018,06,15,06,07,0.10
2018,06,15,06,08,0.00
2018,06,15,06,09,0.10
2018,06,15,06,10,1.60
2018,06,15,06,11,2.30
2018,06,15,06,12,1.50
2018,06,15,06,13,1.20
2018,06,15,06,14,0.60
2018,06,15,06,15,1.10
2018,06,15,06,16,0.60
2018,06,15,06,17,0.80
2018,06,15,06,18,0.60
2018,06,15,06,19,2.30
2018,06,15,06,20,2.90
2018,06,15,06,21,1.40
2018,06,15,06,22,1.70
2018,06,15,06,23,1.40
2018,06,15,06,24,1.80
2018,06,15,06,25,1.10
2018,06,15,06,26,0.60
2018,06,15,06,27,2.00
2018,06,15,06,28,3.20
2018,06,15,06,29,2.30
2018,06,15,06,30,0.40
2018,06,15,06,31,1.20
2018,06,15,06,32,2.20
2018,06,15,06,33,2.60
2018,06,15,06,34,0.80
2018,06,15,06,35,2.40
2018,06,15,06,36,4.00
2018,06,15,06,37,2.30
2018,06,15,06,38,4.10
2018,06,15,06,39,2.80
2018,06,15,06,40,2.50
2018,06,15,06,41,1.90
2018,06,15,06,42,3.90
2018,06,15,06,43,2.20
2018,06,15,06,44,3.40
2018,06,15,06,45,4.20
2018,06,15,06,46,3.00
2018,06,15,06,47,2.30
2018,06,15,06,48,3.40
2018,06,15,06,49,2.90
2018,06,15,06,50,2.20
2018,06,15,06,51,4.50
2018,06,15,06,52,3.60
2018,06,15,06,53,2.70
2018,06,15,06,54,1.70
2018,06,15,06,55,4.90
2018,06,15,06,56,2.50
2018,06,15,06,57,3.60
2018,06,15,06,58,3.70
2018,06,15,06,59,3.20
2018,06,15,07,00,5.20
2018,06,15,07,01,3.20
2018,06,15,07,02,2.80
2018,06,15,07,03,4.30
2018,06,15,07,04,6.20
2018,06,15,07,05,4.00
2018,06,15,07,06,2.40
2018,06,15,07,07,2.60
2018,06,15,07,08,5.40
2018,06,15,07,09,2.20
2018,06,15,07,10,3.40
2018,06,15,07,11,2.50
2018,06,15,07,12,4.60
2018,06,15,07,13,1.60
2018,06,15,07,14,3.50
2018,06,15,07,15,2.40
2018,06,15,07,16,0.90
2018,06,15,07,17,2.00
2018,06,15,07,18,6.80
2018,06,15,07,19,4.40
2018,06,15,07,20,1.60
2018,06,15,07,21,1.80
2018,06,15,07,22,1.20
2018,06,15,07,23,0.60
2018,06,15,07,24,1.90
2018,06,15,07,25,1.20
2018,06,15,07,26,1.20
2018,06,15,07,27,3.10
2018,06,15,07,28,0.50
2018,06,15,07,29,2.10
2018,06,15,07,30,2.20
2018,06,15,07,31,1.10
2018,06,15,07,32,1.40
2018,06,15,07,33,2.40
2018,06,15,07,34,0.20
2018,06,15,07,35,0.60
2018,06,15,07,36,3.40
2018,06,15,07,37,1.60
2018,06,15,07,38,0.60
2018,06,15,07,39,0.20
2018,06,15,07,40,1.00
2018,06,15,07,41,0.60
2018,06,15,07,42,0.30
2018,06,15,07,43,1.50
2018,06,15,07,44,1.40
2018,06,15,07,45,2.10
2018,06,15,07,46,3.20
2018,06,15,07,47,1.60
2018,06,15,07,48,1.40
2018,06,15,07,49,2.80
2018,06,15,07,50,3.70
2018,06,15,07,51,3.20
2018,06,15,07,52,2.10
2018,06,15,07,53,4.30
2018,06,15,07,54,5.00
2018,06,15,07,55,3.80
2018,06,15,07,56,2.90
2018,06,15,07,57,5.60
2018,06,15,07,58,3.70
2018,06,15,07,59,3.60
2018,06,15,08,00,2.80
2018,06,15,08,01,3.80
2018,06,15,08,02,3.30
2018,06,15,08,03,4.50
2018,06,15,08,04,6.50
2018,06,15,08,05,3.00
2018,06,15,08,06,4.80
2018,06,15,08,07,4.90
2018,06,15,08,08,4.40
2018,06,15,08,09,3.70
2018,06,15,08,10,4.20
2018,06,15,08,11,2.60
2018,06,15,08,12,4.90
2018,06,15,08,13,3.00
2018,06,15,08,14,2.90
2018,06,15,08,15,2.90
2018,06,15,08,16,2.20
2018,06,15,08,17,5.40
2018,06,15,08,18,4.40
2018,06,15,08,19,5.60
2018,06,15,08,20,3.00
2018,06,15,08,21,2.80
2018,06,15,08,22,6.70
2018,06,15,08,23,3.40
2018,06,15,08,24,3.40
2018,06,15,08,25,3.50
2018,06,15,08,26,4.80
2018,06,15,08,27,3.00
2018,06,15,08,28,4.10
2018,06,15,08,29,3.00
2018,06,15,08,30,6.10
2018,06,15,08,31,2.50
2018,06,15,08,32,4.00
2018,06,15,08,33,2.70
2018,06,15,08,34,3.70
2018,06,15,08,35,3.20
2018,06,15,08,36,3.50
2018,06,15,08,37,3.90
2018,06,15,08,38,3.00
2018,06,15,08,39,3.80
2018,06,15,08,40,5.40
2018,06,15,08,41,3.90
2018,06,15,08,42,3.20
2018,06,15,08,43,4.60
2018,06,15,08,44,3.70
2018,06,15,08,45,1.20
2018,06,15,08,46,2.30
2018,06,15,08,47,2.20
2018,06,15,08,48,1.40
2018,06,15,08,49,2.40
2018,06,15,08,50,3.20
2018,06,15,08,51,3.60
2018,06,15,08,52,3.10
2018,06,15,08,53,1.80
2018,06,15,08,54,3.20
2018,06,15,08,55,0.90
2018,06,15,08,56,5.20
2018,06,15,08,57,3.70
2018,06,15,08,58,2.00
2018,06,15,08,59,6.40
2018,06,15,09,00,5.30
2018,06,15,09,01,6.00
2018,06,15,09,02,5.70
2018,06,15,09,03,9.00
2018,06,15,09,04,3.90
2018,06,15,09,05,5.90
2018,06,15,09,06,7.50
2018,06,15,09,07,5.90
2018,06,15,09,08,7.10
2018,06,15,09,09,4.00
2018,06,15,09,10,5.20
2018,06,15,09,11,5.10
2018,06,15,09,12,4.30
2018,06,15,09,13,6.30
2018,06,15,09,14,4.90
2018,06,15,09,15,3.40
2018,06,15,09,16,8.10
2018,06,15,09,17,3.90
2018,06,15,09,18,5.80
2018,06,15,09,19,5.50
2018,06,15,09,20,4.80
2018,06,15,09,21,6.60
2018,06,15,09,22,4.50
2018,06,15,09,23,5.20
2018,06,15,09,24,6.70
2018,06,15,09,25,6.20
2018,06,15,09,26,5.10
2018,06,15,09,27,3.20
2018,06,15,09,28,7.70
2018,06,15,09,29,6.70
2018,06,15,09,30,7.20
2018,06,15,09,31,9.10
2018,06,15,09,32,9.70
2018,06,15,09,33,4.70
2018,06,15,09,34,7.30
2018,06,15,09,35,7.90
2018,06,15,09,36,5.70
2018,06,15,09,37,6.50
2018,06,15,09,38,9.50
2018,06,15,09,39,10.20
2018,06,15,09,40,3.10
2018,06,15,09,41,2.90
2018,06,15,09,42,4.00
2018,06,15,09,43,2.40
2018,06,15,09,44,3.00
2018,06,15,09,45,3.40
2018,06,15,09,46,6.60
2018,06,15,09,47,8.40
2018,06,15,09,48,2.40
2018,06,15,09,49,7.00
2018,06,15,09,50,2.60
2018,06,15,09,51,4.20
2018,06,15,09,52,5.10
2018,06,15,09,53,4.80
2018,06,15,09,54,10.90
2018,06,15,09,55,5.50
2018,06,15,09,56,8.90
2018,06,15,09,57,6.10
2018,06,15,09,58,6.00
2018,06,15,09,59,8.80
2018,06,15,10,00,10.80
2018,06,15,10,01,5.20
2018,06,15,10,02,6.40
2018,06,15,10,03,5.80
2018,06,15,10,04,11.50
2018,06,15,10,05,8.90
2018,06,15,10,06,11.00
2018,06,15,10,07,7.80
2018,06,15,10,08,10.40
2018,06,15,10,09,6.90
2018,06,15,10,10,5.70
2018,06,15,10,11,6.90
2018,06,15,10,12,6.80
2018,06,15,10,13,5.80
2018,06,15,10,14,6.40
2018,06,15,10,15,4.10
2018,06,15,10,16,10.80
2018,06,15,10,17,11.20
2018,06,15,10,18,9.40
2018,06,15,10,19,10.40
2018,06,15,10,20,7.00
2018,06,15,10,21,8.50
2018,06,15,10,22,12.60
2018,06,15,10,23,9.20
2018,06,15,10,24,5.10
2018,06,15,10,25,5.20
2018,06,15,10,26,7.00
2018,06,15,10,27,6.50
2018,06,15,10,28,8.10
2018,06,15,10,29,6.80
2018,06,15,10,30,5.30
2018,06,15,10,31,7.00
2018,06,15,10,32,4.30
2018,06,15,10,33,5.50
2018,06,15,10,34,12.10
2018,06,15,10,35,5.10
2018,06,15,10,36,6.90
2018,06,15,10,37,6.40
2018,06,15,10,38,4.30
2018,06,15,10,39,2.00
2018,06,15,10,40,6.30
2018,06,15,10,41,5.60
2018,06,15,10,42,5.00
2018,06,15,10,43,9.30
2018,06,15,10,44,6.60
2018,06,15,10,45,6.00
2018,06,15,10,46,5.10
2018,06,15,10,47,6.00
2018,06,15,10,48,7.00
2018,06,15,10,49,4.50
2018,06,15,10,50,8.20
2018,06,15,10,51,9.10
2018,06,15,10,52,4.20
2018,06,15,10,53,9.00
2018,06,15,10,54,7.90
2018,06,15,10,55,3.90
2018,06,15,10,56,11.00
2018,06,15,10,57,9.10
2018,06,15,10,58,5.20
2018,06,15,10,59,3.90
2018,06,15,11,00,5.10
2018,06,15,11,01,5.40
2018,06,15,11,02,6.20
2018,06,15,11,03,9.30
2018,06,15,11,04,6.70
2018,06,15,11,05,7.60
2018,06,15,11,06,4.30
2018,06,15,11,07,5.80
2018,06,15,11,08,6.00
2018,06,15,11,09,4.10
2018,06,15,11,10,2.30
2018,06,15,11,11,7.20
2018,06,15,11,12,4.60
2018,06,15,11,13,5.20
2018,06,15,11,14,5.90
2018,06,15,11,15,8.50
2018,06,15,11,16,7.70
2018,06,15,11,17,4.60
2018,06,15,11,18,6.10
2018,06,15,11,19,3.00
2018,06,15,11,20,9.90
2018,06,15,11,21,9.20
2018,06,15,11,22,7.50
2018,06,15,11,23,9.30
2018,06,15,11,24,11.80
2018,06,15,11,25,7.70
2018,06,15,11,26,13.20
2018,06,15,11,27,12.80
2018,06,15,11,28,7.20
2018,06,15,11,29,3.40
2018,06,15,11,30,8.90
2018,06,15,11,31,8.50
2018,06,15,11,32,10.00
2018,06,15,11,33,6.40
2018,06,15,11,34,5.30
2018,06,15,11,35,8.30
2018,06,15,11,36,7.30
2018,06,15,11,37,10.60
2018,06,15,11,38,11.20
2018,06,15,11,39,6.90
2018,06,15,11,40,10.20
2018,06,15,11,41,5.50
2018,06,15,11,42,7.30
2018,06,15,11,43,8.40
2018,06,15,11,44,9.40
2018,06,15,11,45,6.20
2018,06,15,11,46,9.60
2018,06,15,11,47,6.70
2018,06,15,11,48,6.00
2018,06,15,11,49,7.20
2018,06,15,11,50,5.50
2018,06,15,11,51,8.60
2018,06,15,11,52,7.50
2018,06,15,11,53,10.20
2018,06,15,11,54,14.20
2018,06,15,11,55,9.30
2018,06,15,11,56,9.90
2018,06,15,11,57,6.20
2018,06,15,11,58,4.80
2018,06,15,11,59,8.80
2018,06,15,12,00,3.30
2018,06,15,12,01,2.20
2018,06,15,12,02,4.10
2018,06,15,12,03,9.90
2018,06,15,12,04,7.40
2018,06,15,12,05,7.40
2018,06,15,12,06,11.50
2018,06,15,12,07,7.80
2018,06,15,12,08,10.90
2018,06,15,12,09,6.70
2018,06,15,12,10,6.60
2018,06,15,12,11,9.60
2018,06,15,12,12,12.20
2018,06,15,12,13,10.50
2018,06,15,12,14,10.50
2018,06,15,12,15,10.60
2018,06,15,12,16,11.30
2018,06,15,12,17,6.60
2018,06,15,12,18,6.90
2018,06,15,12,19,7.20
2018,06,15,12,20,4.00
2018,06,15,12,21,6.00
2018,06,15,12,22,4.70
2018,06,15,12,23,3.80
2018,06,15,12,24,6.20
2018,06,15,12,25,8.30
2018,06,15,12,26,6.70
2018,06,15,12,27,9.20
2018,06,15,12,28,5.80
2018,06,15,12,29,8.40
2018,06,15,12,30,5.50
2018,06,15,12,31,6.90
2018,06,15,12,32,10.20
2018,06,15,12,33,9.20
2018,06,15,12,34,7.20
2018,06,15,12,35,7.20
2018,06,15,12,36,4.10
2018,06,15,12,37,6.50
2018,06,15,12,38,5.10
2018,06,15,12,39,5.30
2018,06,15,12,40,12.70
2018,06,15,12,41,6.00
2018,06,15,12,42,9.40
2018,06,15,12,43,5.90
2018,06,15,12,44,3.00
2018,06,15,12,45,4.70
2018,06,15,12,46,4.20
2018,06,15,12,47,7.60
2018,06,15,12,48,7.80
2018,06,15,12,49,6.00
2018,06,15,12,50,7.10
2018,06,15,12,51,5.20
2018,06,15,12,52,7.00
2018,06,15,12,53,7.20
2018,06,15,12,54,6.10
2018,06,15,12,55,6.90
2018,06,15,12,56,7.90
2018,06,15,12,57,7.00
2018,06,15,12,58,3.70
2018,06,15,12,59,3.50
2018,06,15,13,00,4.70
2018,06,15,13,01,12.10
2018,06,15,13,02,10.20
2018,06,15,13,03,10.00
2018,06,15,13,04,6.00
2018,06,15,13,05,6.30
2018,06,15,13,06,5.50
2018,06,15,13,07,10.00
2018,06,15,13,08,7.70
2018,06,15,13,09,10.90
2018,06,15,13,10,6.50
2018,06,15,13,11,4.40
2018,06,15,13,12,9.10
2018,06,15,13,13,7.50
2018,06,15,13,14,5.50
2018,06,15,13,15,6.00
2018,06,15,13,16,12.00
2018,06,15,13,17,5.90
2018,06,15,13,18,6.90
2018,06,15,13,19,5.60
2018,06,15,13,20,5.90
2018,06,15,13,21,3.50
2018,06,15,13,22,5.90
2018,06,15,13,23,5.00
2018,06,15,13,24,5.20
2018,06,15,13,25,7.60
2018,06,15,13,26,9.40
2018,06,15,13,27,8.00
2018,06,15,13,28,8.60
2018,06,15,13,29,3.50
2018,06,15,13,30,11.00
2018,06,15,13,31,5.10
2018,06,15,13,32,5.20
2018,06,15,13,33,9.10
2018,06,15,13,34,7.60
2018,06,15,13,35,9.40
2018,06,15,13,36,7.20
2018,06,15,13,37,6.00
2018,06,15,13,38,8.00
2018,06,15,13,39,5.80
2018,06,15,13,40,10.10
2018,06,15,13,41,7.00
2018,06,15,13,42,6.20
2018,06,15,13,43,8.50
2018,06,15,13,44,7.90
2018,06,15,13,45,6.20
2018,06,15,13,46,7.10
2018,06,15,13,47,8.30
2018,06,15,13,48,7.80
2018,06,15,13,49,9.50
2018,06,15,13,50,5.80
2018,06,15,13,51,7.80
2018,06,15,13,52,11.40
2018,06,15,13,53,9.20
2018,06,15,13,54,7.00
2018,06,15,13,55,9.10
2018,06,15,13,56,9.00
2018,06,15,13,57,7.50
2018,06,15,13,58,8.30
2018,06,15,13,59,5.20
2018,06,15,14,00,2.90
2018,06,15,14,01,6.30
2018,06,15,14,02,7.00
2018,06,15,14,03,12.60
2018,06,15,14,04,9.00
2018,06,15,14,05,8.40
2018,06,15,14,06,9.70
2018,06,15,14,07,4.40
2018,06,15,14,08,2.90
2018,06,15,14,09,4.20
2018,06,15,14,10,6.70
2018,06,15,14,11,6.90
2018,06,15,14,12,7.90
2018,06,15,14,13,7.90
2018,06,15,14,14,9.70
2018,06,15,14,15,12.30
2018,06,15,14,16,7.40
2018,06,15,14,17,3.70
2018,06,15,14,18,7.20
2018,06,15,14,19,9.30
2018,06,15,14,20,6.30
2018,06,15,14,21,9.30
2018,06,15,14,22,7.90
2018,06,15,14,23,7.80
2018,06,15,14,24,8.40
2018,06,15,14,25,4.10
2018,06,15,14,26,6.50
2018,06,15,14,27,5.70
2018,06,15,14,28,9.00
2018,06,15,14,29,6.30
2018,06,15,14,30,10.60
2018,06,15,14,31,4.70
2018,06,15,14,32,9.40
2018,06,15,14,33,8.40
2018,06,15,14,34,5.20
2018,06,15,14,35,3.40
2018,06,15,14,36,5.50
2018,06,15,14,37,8.80
2018,06,15,14,38,5.40
2018,06,15,14,39,9.60
2018,06,15,14,40,6.30
2018,06,15,14,41,12.90
2018,06,15,14,42,10.60
2018,06,15,14,43,10.80
2018,06,15,14,44,10.50
2018,06,15,14,45,6.90
2018,06,15,14,46,7.30
2018,06,15,14,47,10.80
2018,06,15,14,48,6.40
2018,06,15,14,49,9.60
2018,06,15,14,50,8.10
2018,06,15,14,51,6.00
2018,06,15,14,52,4.80
2018,06,15,14,53,4.60
2018,06,15,14,54,7.70
2018,06,15,14,55,5.20
2018,06,15,14,56,4.80
2018,06,15,14,57,4.00
2018,06,15,14,58,4.20
2018,06,15,14,59,1.80
2018,06,15,15,00,3.20
2018,06,15,15,01,7.10
2018,06,15,15,02,7.10
2018,06,15,15,03,14.20
2018,06,15,15,04,5.30
2018,06,15,15,05,9.10
2018,06,15,15,06,3.40
2018,06,15,15,07,4.50
2018,06,15,15,08,8.00
2018,06,15,15,09,7.30
2018,06,15,15,10,6.00
2018,06,15,15,11,8.20
2018,06,15,15,12,5.20
2018,06,15,15,13,9.20
2018,06,15,15,14,5.30
2018,06,15,15,15,5.40
2018,06,15,15,16,8.90
2018,06,15,15,17,6.90
2018,06,15,15,18,9.60
2018,06,15,15,19,10.50
2018,06,15,15,20,3.60
2018,06,15,15,21,4.00
2018,06,15,15,22,2.10
2018,06,15,15,23,2.10
2018,06,15,15,24,4.10
2018,06,15,15,25,6.10
2018,06,15,15,26,6.60
2018,06,15,15,27,5.20
2018,06,15,15,28,2.20
2018,06,15,15,29,2.10
2018,06,15,15,30,3.20
2018,06,15,15,31,3.90
2018,06,15,15,32,4.70
2018,06,15,15,33,3.60
2018,06,15,15,34,4.40
2018,06,15,15,35,4.00
2018,06,15,15,36,8.50
2018,06,15,15,37,5.50
2018,06,15,15,38,5.20
2018,06,15,15,39,1.70
2018,06,15,15,40,1.90
2018,06,15,15,41,2.60
2018,06,15,15,42,4.50
2018,06,15,15,43,4.40
2018,06,15,15,44,5.80
2018,06,15,15,45,3.00
2018,06,15,15,46,1.90
2018,06,15,15,47,3.60
2018,06,15,15,48,5.10
2018,06,15,15,49,6.10
2018,06,15,15,50,8.00
2018,06,15,15,51,7.40
2018,06,15,15,52,4.30
2018,06,15,15,53,4.70
2018,06,15,15,54,3.40
2018,06,15,15,55,3.40
2018,06,15,15,56,3.40
2018,06,15,15,57,7.40
2018,06,15,15,58,1.50
2018,06,15,15,59,4.50
2018,06,15,16,00,4.50
2018,06,15,16,01,5.50
2018,06,15,16,02,6.20
2018,06,15,16,03,3.20
2018,06,15,16,04,5.10
2018,06,15,16,05,1.70
2018,06,15,16,06,0.80
2018,06,15,16,07,1.60
2018,06,15,16,08,3.20
2018,06,15,16,09,3.40
2018,06,15,16,10,5.10
2018,06,15,16,11,3.20
2018,06,15,16,12,3.30
2018,06,15,16,13,3.40
2018,06,15,16,14,1.10
2018,06,15,16,15,2.20
2018,06,15,16,16,5.30
2018,06,15,16,17,4.50
2018,06,15,16,18,3.90
2018,06,15,16,19,6.20
2018,06,15,16,20,4.00
2018,06,15,16,21,3.20
2018,06,15,16,22,2.70
2018,06,15,16,23,3.40
2018,06,15,16,24,2.20
2018,06,15,16,25,3.80
2018,06,15,16,26,4.10
2018,06,15,16,27,2.80
2018,06,15,16,28,4.70
2018,06,15,16,29,2.40
2018,06,15,16,30,3.00
2018,06,15,16,31,3.00
2018,06,15,16,32,3.30
2018,06,15,16,33,2.90
2018,06,15,16,34,4.60
2018,06,15,16,35,3.10
2018,06,15,16,36,2.50
2018,06,15,16,37,2.40
2018,06,15,16,38,2.70
2018,06,15,16,39,4.40
2018,06,15,16,40,2.80
2018,06,15,16,41,2.40
2018,06,15,16,42,3.20
2018,06,15,16,43,3.90
2018,06,15,16,44,4.10
2018,06,15,16,45,3.00
2018,06,15,16,46,5.20
2018,06,15,16,47,2.70
2018,06,15,16,48,5.30
2018,06,15,16,49,5.40
2018,06,15,16,50,4.90
2018,06,15,16,51,3.30
2018,06,15,16,52,1.60
2018,06,15,16,53,4.00
2018,06,15,16,54,2.60
2018,06,15,16,55,2.90
2018,06,15,16,56,3.10
2018,06,15,16,57,1.30
2018,06,15,16,58,5.70
2018,06,15,16,59,4.60
2018,06,15,17,00,3.50
2018,06,15,17,01,1.90
2018,06,15,17,02,0.80
2018,06,15,17,03,1.60
2018,06,15,17,04,3.60
2018,06,15,17,05,3.70
2018,06,15,17,06,4.00
2018,06,15,17,07,4.70
2018,06,15,17,08,3.20
2018,06,15,17,09,3.00
2018,06,15,17,10,3.70
2018,06,15,17,11,2.90
2018,06,15,17,12,2.60
2018,06,15,17,13,3.10
2018,06,15,17,14,3.20
2018,06,15,17,15,2.90
2018,06,15,17,16,3.00
2018,06,15,17,17,3.40
2018,06,15,17,18,2.50
2018,06,15,17,19,2.60
2018,06,15,17,20,2.00
2018,06,15,17,21,0.90
2018,06,15,17,22,2.00
2018,06,15,17,23,2.80
2018,06,15,17,24,2.50
2018,06,15,17,25,2.00
2018,06,15,17,26,2.50
2018,06,15,17,27,2.20
2018,06,15,17,28,2.60
2018,06,15,17,29,3.00
2018,06,15,17,30,3.40
2018,06,15,17,31,2.70
2018,06,15,17,32,2.30
2018,06,15,17,33,2.90
2018,06,15,17,34,3.50
2018,06,15,17,35,3.80
2018,06,15,17,36,3.10
2018,06,15,17,37,2.30
2018,06,15,17,38,3.00
2018,06,15,17,39,2.80
2018,06,15,17,40,2.90
2018,06,15,17,41,2.10
2018,06,15,17,42,2.60
2018,06,15,17,43,2.10
2018,06,15,17,44,2.10
2018,06,15,17,45,1.40
2018,06,15,17,46,2.00
2018,06,15,17,47,1.70
2018,06,15,17,48,1.40
2018,06,15,17,49,2.50
2018,06,15,17,50,2.40
2018,06,15,17,51,2.20
2018,06,15,17,52,2.70
2018,06,15,17,53,2.50
2018,06,15,17,54,2.90
2018,06,15,17,55,3.30
2018,06,15,17,56,3.00
2018,06,15,17,57,3.40
2018,06,15,17,58,1.80
2018,06,15,17,59,2.50
2018,06,15,18,00,2.70
2018,06,15,18,01,2.70
2018,06,15,18,02,2.40
2018,06,15,18,03,1.90
2018,06,15,18,04,2.20